This is the latest recevied weather packets stored in our database for station/object N5ZP. If no packets are shown the sender has not sent any weather packets the latest 1 day(s).
| Time | Temp. | Humidity | Pressure | Rain* | Wind** | Luminosity | Snow |
|---|---|---|---|---|---|---|---|
| 1778022116 | 24.44° C | 61% | 1002.4 hPa | 0 mm | 0.89 m/s, 270° | 85 W/m² | - |
| 1778021812 | 24.44° C | 61% | 1002.5 hPa | 0 mm | 2.68 m/s, 356° | 92 W/m² | - |
| 1778021509 | 25° C | 60% | 1002.2 hPa | 0 mm | 3.58 m/s, 356° | 94 W/m² | - |
| 1778021205 | 25° C | 60% | 1002.4 hPa | 0 mm | 4.02 m/s, 26° | 95 W/m² | - |
| 1778020903 | 25.56° C | 61% | 1002.3 hPa | 0 mm | 1.34 m/s, 238° | 108 W/m² | - |
| 1778020600 | 25.56° C | 61% | 1002.2 hPa | 0 mm | 1.34 m/s, 311° | 116 W/m² | - |
| 1778020296 | 26.11° C | 61% | 1002.1 hPa | 0 mm | 1.34 m/s, 289° | 113 W/m² | - |
| 1778019992 | 26.11° C | 60% | 1001.8 hPa | 0 mm | 1.34 m/s, 255° | 138 W/m² | - |
| 1778019689 | 26.11° C | 59% | 1002.3 hPa | 0 mm | 1.79 m/s, 271° | 131 W/m² | - |
| 1778019386 | 26.67° C | 60% | 1002 hPa | 0 mm | 1.79 m/s, 340° | 110 W/m² | - |
| 1778019082 | 26.67° C | 59% | 1001.8 hPa | 0 mm | 2.24 m/s, 262° | 132 W/m² | - |
| 1778018780 | 27.22° C | 58% | 1001.8 hPa | 0 mm | 0.45 m/s, 242° | 211 W/m² | - |
| 1778018477 | 27.22° C | 59% | 1001.7 hPa | 0 mm | 0.89 m/s, 314° | 227 W/m² | - |
| 1778018175 | 27.78° C | 61% | 1001.7 hPa | 0 mm | 2.68 m/s, 247° | 222 W/m² | - |
| 1778017873 | 27.78° C | 60% | 1001.8 hPa | 0 mm | 1.34 m/s, 287° | 200 W/m² | - |
| 1778017571 | 28.89° C | 58% | 1001.5 hPa | 0 mm | 2.24 m/s, 353° | 204 W/m² | - |
| 1778017267 | 28.89° C | 54% | 1001.6 hPa | 0 mm | 1.79 m/s, 257° | 237 W/m² | - |
| 1778016965 | 28.89° C | 53% | 1001.5 hPa | 0 mm | 1.34 m/s, 261° | 350 W/m² | - |
| 1778016661 | 29.44° C | 49% | 1001.8 hPa | 0 mm | 2.68 m/s, 355° | 206 W/m² | - |
| 1778016352 | 30° C | 49% | 1001.9 hPa | 0 mm | 2.68 m/s, 321° | 224 W/m² | - |
| 1778016050 | 29.44° C | 50% | 1001.6 hPa | 0 mm | 1.79 m/s, 241° | 425 W/m² | - |
| 1778015747 | 29.44° C | 48% | 1001.8 hPa | 0 mm | 2.24 m/s, 308° | 458 W/m² | - |
| 1778015444 | 29.44° C | 46% | 1001.7 hPa | 0 mm | 2.24 m/s, 315° | 288 W/m² | - |
| 1778015140 | 29.44° C | 47% | 1001.6 hPa | 0 mm | 1.34 m/s, 285° | 415 W/m² | - |
| 1778014837 | 30° C | 45% | 1001.7 hPa | 0 mm | 3.58 m/s, 45° | 329 W/m² | - |
* Rain latest hour (hover to see other rain measurements)
** Current wind speed in m/s (hover to see current wind gust speed)